Location: L�beck
(53.8752°N, 10.6787°E)
Time: 10:35:37
(UTC+01:00)

Amateur Radio Satellites - All Passes

Search period start: 24 November 2017 10:05
Search period end: 25 November 2017 10:05
Location: L�beck, 53.8752°N, 10.6787°E

Satellite Date Start Highest point End Downlink Frequencies (MHz)
Time Altitude Azimuth
BEESAT 3 24 Nov 10:09:16 10:13:15 73° 230° (SW) 10:17:10 437.485
PCSat 24 Nov 10:09:36 10:12:51 16° 254° (WSW) 10:16:05 145.827
YUBILEINY 24 Nov 10:12:32 10:14:01 10° 340° (NNW) 10:15:30 435.215
PRISM 24 Nov 10:13:17 10:17:18 48° 260° (W) 10:21:22 437.425
UNISAT 6 24 Nov 10:14:25 10:18:02 23° 268° (W) 10:21:35 437.425
TIGRISAT 24 Nov 10:17:51 10:21:28 23° 268° (W) 10:25:01 435.000
DELFI C3 24 Nov 10:29:12 10:33:11 64° 289° (WNW) 10:37:09 145.870
AAUSAT CUBESAT 2 24 Nov 10:31:11 10:32:19 11° 309° (NW) 10:33:28 437.432
AIST 2D 24 Nov 10:35:10 10:38:37 81° 257° (WSW) 10:42:09 435.315
ZACube-1 24 Nov 10:35:46 10:37:49 13° 306° (NW) 10:39:51 437.345
AO-7 24 Nov 10:39:21 10:43:32 15° 16° (NNE) 10:47:43 .
EO-88 24 Nov 10:45:09 10:48:49 77° 286° (WNW) 10:52:28 145.990 - 145.960
DUCHIFAT 1 24 Nov 10:45:22 10:49:20 42° 67° (ENE) 10:53:19 145.980
Max Valier Satellite 24 Nov 10:54:34 10:58:06 45° 290° (WNW) 11:01:37 145.860
Oscar 19 24 Nov 10:55:49 10:59:03 17° 50° (NE) 11:02:19 437.125/150
EO-79 24 Nov 10:56:34 11:00:46 66° 71° (ENE) 11:04:59 145.935-145.965
AO-85 24 Nov 10:56:57 11:01:24 59° 39° (NE) 11:06:12 145.980
NANOSAT C BR1 24 Nov 10:57:37 11:01:47 61° 70° (ENE) 11:05:57 145.865
LO-87 24 Nov 10:59:23 11:02:21 24° 94° (E) 11:05:17 145.935 - 145.965
AO-91 24 Nov 11:02:25 11:05:57 18° 53° (NE) 11:09:24 145.960
POLYITAN 1 24 Nov 11:12:48 11:17:02 89° 245° (WSW) 11:21:18 437.675
HO-68 24 Nov 11:15:22 11:18:35 14° 331° (NNW) 11:21:47 435.675
BUGSAT 1 24 Nov 11:25:14 11:28:56 31° 64° (ENE) 11:32:36 437.445
BEESAT 2 24 Nov 11:28:41 11:32:34 44° 235° (SW) 11:36:23 435.950
QB50P2 24 Nov 11:36:37 11:40:45 49° 260° (W) 11:44:53 145.880/145.840
ESTCUBE 1 24 Nov 11:41:19 11:45:45 50° 99° (E) 11:50:10 437.505/2401.250
Gurwin Techsat 1B 24 Nov 11:45:35 11:50:06 29° 58° (ENE) 11:54:38 435.225
BEESAT 3 24 Nov 11:48:29 11:50:04 12° 248° (WSW) 11:51:39 437.485
VELOX 1 24 Nov 11:48:44 11:50:46 13° 85° (E) 11:52:48 145.980
DELFI C3 24 Nov 12:06:04 12:07:09 11° 308° (NW) 12:08:14 145.870
M-CUBED/EXP-1 PRIME 24 Nov 12:14:48 12:17:33 19° 48° (NE) 12:20:26 437.505
SPROUT 24 Nov 12:19:15 12:23:08 33° 96° (E) 12:26:59 437.525
EO-88 24 Nov 12:20:43 12:21:49 11° 306° (NW) 12:22:54 145.990 - 145.960
DUCHIFAT 1 24 Nov 12:21:34 12:25:09 27° 266° (W) 12:28:45 145.980
AO-7 24 Nov 12:26:55 12:33:48 31° 42° (NE) 12:40:44 .
Oscar 19 24 Nov 12:32:30 12:37:37 75° 71° (ENE) 12:42:46 437.125/150
LO-87 24 Nov 12:32:36 12:35:50 34° 293° (WNW) 12:39:03 145.935 - 145.965
EO-79 24 Nov 12:34:03 12:36:58 18° 270° (W) 12:39:53 145.935-145.965
NANOSAT C BR1 24 Nov 12:34:50 12:37:52 19° 270° (W) 12:40:56 145.865
AO-91 24 Nov 12:36:15 12:41:39 75° 72° (ENE) 12:46:55 145.960
AO-85 24 Nov 12:37:33 12:41:41 33° 238° (WSW) 12:46:04 145.980
POLYITAN 1 24 Nov 12:51:31 12:53:28 13° 274° (W) 12:55:26 437.675
ITAMSAT 1 24 Nov 12:55:51 12:58:51 16° 47° (NE) 13:01:52 435.822/435.867
BUGSAT 1 24 Nov 13:00:22 13:04:14 36° 263° (W) 13:08:05 437.445
ESTCUBE 1 24 Nov 13:18:30 13:22:21 27° 299° (WNW) 13:26:10 437.505/2401.250
O/OREOS (USA 219) 24 Nov 13:19:19 13:23:50 60° 115° (ESE) 13:28:23 437.305
50 SAT 24 Nov 13:21:14 13:23:45 20° 94° (E) 13:26:14 437.505
VELOX 1 24 Nov 13:23:27 13:27:57 83° 104° (ESE) 13:32:24 145.980
Gurwin Techsat 1B 24 Nov 13:24:29 13:29:45 61° 258° (WSW) 13:35:04 435.225
M-CUBED/EXP-1 PRIME 24 Nov 13:47:40 13:51:25 75° 249° (WSW) 13:55:34 437.505
DOVE 4 24 Nov 13:52:38 13:53:08 10° 42° (NE) 13:53:38 437.250
SPROUT 24 Nov 13:55:09 13:59:03 35° 295° (WNW) 14:02:54 437.525
DX 1 24 Nov 13:58:11 14:02:28 49° 100° (E) 14:06:43 434.975-435.025
YUBILEINY 24 Nov 14:11:14 14:18:07 24° 49° (NE) 14:24:57 435.215
Oscar 19 24 Nov 14:13:44 14:17:31 21° 271° (W) 14:21:20 437.125/150
AO-91 24 Nov 14:14:20 14:18:33 23° 271° (W) 14:22:43 145.960
AO-7 24 Nov 14:17:21 14:25:39 84° 65° (ENE) 14:34:02 .
ITAMSAT 1 24 Nov 14:32:15 14:37:25 64° 68° (ENE) 14:42:37 435.822/435.867
UKube-1 24 Nov 14:32:59 14:37:20 67° 104° (ESE) 14:41:38 .
HO-68 24 Nov 14:45:37 14:47:50 12° 24° (NNE) 14:50:03 435.675
NO-84 24 Nov 14:49:18 14:52:32 28° 141° (SE) 14:55:59 435.350 FM
50 SAT 24 Nov 14:52:57 14:55:55 33° 293° (WNW) 14:58:50 437.505
O/OREOS (USA 219) 24 Nov 14:59:36 15:03:36 28° 316° (NW) 15:07:36 437.305
VELOX 1 24 Nov 15:00:50 15:03:52 18° 305° (NW) 15:06:53 145.980
MOZHAYETS 4 24 Nov 15:02:09 15:06:17 32° 95° (E) 15:10:24
Gurwin Techsat 1B 24 Nov 15:09:10 15:10:50 11° 278° (W) 15:12:29 435.225
BEESAT 24 Nov 15:10:19 15:14:29 29° 94° (E) 15:18:38 436.000
ITUPSAT 1 24 Nov 15:22:16 15:26:41 36° 97° (E) 15:31:03 437.325
CUBESAT XI-V 24 Nov 15:23:32 15:26:29 16° 87° (E) 15:29:25 437.345
DOVE 4 24 Nov 15:24:39 15:29:27 39° 64° (ENE) 15:34:23 437.250
DX 1 24 Nov 15:34:45 15:38:27 27° 300° (WNW) 15:42:07 434.975-435.025
XW-2D 24 Nov 15:54:06 15:56:12 15° 57° (ENE) 15:58:19 145.860 - 145.880
RS-15 24 Nov 16:00:33 16:04:11 12° 87° (E) 16:07:48 29.354- 29.394
YUBILEINY 24 Nov 16:07:51 16:16:46 73° 75° (ENE) 16:25:36 435.215
XW-2B 24 Nov 16:08:25 16:11:03 18° 60° (ENE) 16:13:42 145.730 - 145.750
NUDT-PHONESAT 24 Nov 16:08:42 16:10:38 14° 57° (ENE) 16:12:34 437.300
UKube-1 24 Nov 16:09:44 16:12:56 21° 303° (WNW) 16:16:09 .
AO-7 24 Nov 16:12:23 16:19:23 30° 268° (W) 16:26:27 .
ITAMSAT 1 24 Nov 16:13:04 16:17:20 25° 268° (W) 16:21:37 435.822/435.867
CUTE 1.7 + AOD 2 24 Nov 16:23:24 16:24:13 10° 50° (NE) 16:25:02 437.475
NO-84 24 Nov 16:25:39 16:29:31 83° 162° (SSE) 16:33:40 435.350 FM
HO-68 24 Nov 16:27:24 16:33:23 30° 49° (NE) 16:39:23 435.675
CUTE-I 24 Nov 16:29:35 16:34:26 36° 61° (ENE) 16:39:19 437.470
KKS-1 24 Nov 16:29:35 16:32:21 16° 88° (E) 16:35:04 437.445
XW-2C 24 Nov 16:33:24 16:36:42 30° 65° (ENE) 16:40:03 145.795 - 145.815
MOZHAYETS 4 24 Nov 16:39:15 16:43:32 40° 295° (WNW) 16:47:48
LilacSat-2 24 Nov 16:39:39 16:43:08 37° 67° (ENE) 16:46:39 437.200
XW-2F 24 Nov 16:40:40 16:44:02 33° 66° (ENE) 16:47:25 145.980 - 146.000
O/OREOS (USA 219) 24 Nov 16:43:39 16:44:36 11° 340° (NNW) 16:45:34 437.305
SEEDS 24 Nov 16:46:27 16:47:41 11° 51° (NE) 16:48:55 437.485
BEESAT 24 Nov 16:47:53 16:52:28 47° 294° (WNW) 16:57:00 436.000
CUBESAT XI-V 24 Nov 16:59:45 17:04:29 84° 284° (WNW) 17:09:11 437.345
ITUPSAT 1 24 Nov 17:00:07 17:04:33 39° 297° (WNW) 17:08:58 437.325
KAITUO 1B 24 Nov 17:02:08 17:05:39 43° 69° (ENE) 17:09:12 145.475/437.950
DOVE 4 24 Nov 17:02:10 17:07:05 43° 264° (W) 17:12:09 437.250
UWE-3 24 Nov 17:08:52 17:10:08 11° 51° (NE) 17:11:23 435.000/436.395/437.385
XW-2D 24 Nov 17:26:08 17:29:52 79° 257° (WSW) 17:33:40 145.860 - 145.880
AO-73 24 Nov 17:40:07 17:41:08 11° 51° (NE) 17:42:08 145.935
NUDT-PHONESAT 24 Nov 17:40:19 17:43:58 80° 256° (WSW) 17:47:40 437.300
XW-2B 24 Nov 17:41:12 17:44:53 57° 259° (W) 17:48:37 145.730 - 145.750
Oscar 11 24 Nov 17:52:31 17:53:31 11° 50° (NE) 17:54:31 .
CUBEBUG 2 24 Nov 17:52:33 17:56:39 36° 66° (ENE) 18:00:39 437.445
CUTE 1.7 + AOD 2 24 Nov 17:55:03 17:59:10 56° 70° (ENE) 18:03:20 437.475
RS-15 24 Nov 18:01:48 18:13:09 46° 113° (ESE) 18:24:22 29.354- 29.394
NO-84 24 Nov 18:02:58 18:06:59 75° 3° (N) 18:11:13 435.350 FM
KKS-1 24 Nov 18:04:59 18:09:29 81° 288° (WNW) 18:13:56 437.445
YUBILEINY 24 Nov 18:05:17 18:12:57 35° 279° (W) 18:20:35 435.215
XW-2A 24 Nov 18:07:22 18:10:01 22° 64° (ENE) 18:12:40 145.665 - 145.685
XW-2C 24 Nov 18:07:31 18:10:52 30° 265° (W) 18:14:15 145.795 - 145.815
CUTE-I 24 Nov 18:09:12 18:14:23 48° 261° (W) 18:19:37 437.470
HO-68 24 Nov 18:13:13 18:20:26 87° 251° (WSW) 18:27:43 435.675
LilacSat-2 24 Nov 18:14:20 18:17:30 25° 266° (W) 18:20:42 437.200
AAUSAT CUBESAT 2 24 Nov 18:14:42 18:18:17 29° 64° (ENE) 18:21:55 437.432
XW-2F 24 Nov 18:14:57 18:18:11 27° 266° (W) 18:21:27 145.980 - 146.000
SEEDS 24 Nov 18:18:24 18:22:32 60° 71° (ENE) 18:26:42 437.485
STARS 24 Nov 18:18:53 18:23:17 64° 103° (ESE) 18:27:37 437.465
ZACube-1 24 Nov 18:24:28 18:27:59 26° 62° (ENE) 18:31:27 437.345
BEESAT 24 Nov 18:28:03 18:29:11 11° 315° (NW) 18:30:19 436.000
KAITUO 1B 24 Nov 18:36:58 18:39:50 21° 268° (W) 18:42:43 145.475/437.950
CUBESAT XI-V 24 Nov 18:38:14 18:41:12 17° 306° (NW) 18:44:10 437.345
UWE-3 24 Nov 18:41:30 18:45:48 60° 70° (ENE) 18:50:00 435.000/436.395/437.385
AO-73 24 Nov 19:12:23 19:16:33 59° 71° (ENE) 19:20:40 145.935
STRAND 1 24 Nov 19:21:23 19:26:08 37° 96° (E) 19:30:50 437.568
Oscar 11 24 Nov 19:24:34 19:28:46 55° 70° (ENE) 19:32:59 .
CUBEBUG 2 24 Nov 19:29:12 19:33:18 34° 264° (W) 19:37:18 437.445
CUTE 1.7 + AOD 2 24 Nov 19:32:09 19:35:20 21° 270° (W) 19:38:33 437.475
XW-2A 24 Nov 19:39:32 19:42:35 34° 263° (W) 19:45:40 145.665 - 145.685
NO-84 24 Nov 19:40:18 19:44:24 66° 204° (SSW) 19:48:39 435.350 FM
KKS-1 24 Nov 19:42:44 19:45:23 16° 308° (NW) 19:48:01 437.445
DELFI C3 24 Nov 19:46:24 19:49:37 24° 62° (ENE) 19:52:52 145.870
AAUSAT CUBESAT 2 24 Nov 19:49:45 19:53:39 39° 263° (W) 19:57:35 437.432
SEEDS 24 Nov 19:55:36 19:58:36 19° 271° (W) 20:01:39 437.485
STARS 24 Nov 19:55:53 19:59:15 22° 303° (WNW) 20:02:35 437.465
EO-88 24 Nov 19:56:38 19:58:51 16° 58° (ENE) 20:01:04 145.990 - 145.960
ZACube-1 24 Nov 19:59:59 20:04:06 46° 261° (W) 20:08:09 437.345
FO-29 24 Nov 20:03:12 20:10:22 36° 90° (E) 20:17:08 435.910
HO-68 24 Nov 20:03:43 20:09:12 23° 273° (W) 20:14:43 435.675
O/OREOS (USA 219) 24 Nov 20:04:55 20:07:51 16° 33° (NNE) 20:10:45 437.305
Max Valier Satellite 24 Nov 20:06:03 20:09:02 24° 63° (ENE) 20:12:02 145.860
ISS 24 Nov 20:09:55 20:11:50 15° 144° (SE) 20:13:45 437.550
RS-15 24 Nov 20:12:36 20:25:01 80° 319° (NW) 20:37:12 29.354- 29.394
UWE-3 24 Nov 20:19:23 20:22:36 20° 270° (W) 20:25:47 435.000/436.395/437.385
nSIGHT-1 24 Nov 20:48:53 20:51:38 26° 154° (SSE) 20:54:24 .
AO-73 24 Nov 20:50:05 20:53:10 19° 270° (W) 20:56:13 145.935
STRAND 1 24 Nov 21:00:34 21:05:25 43° 296° (WNW) 21:10:12 437.568
Oscar 11 24 Nov 21:01:56 21:05:14 21° 269° (W) 21:08:34 .
ESTCUBE 1 24 Nov 21:12:07 21:15:07 18° 55° (NE) 21:18:08 437.505/2401.250
NO-84 24 Nov 21:18:03 21:21:18 22° 223° (SW) 21:24:33 435.350 FM
DELFI C3 24 Nov 21:20:19 21:24:09 46° 261° (W) 21:28:02 145.870
EO-88 24 Nov 21:28:27 21:32:04 67° 258° (WSW) 21:35:42 145.990 - 145.960
Max Valier Satellite 24 Nov 21:39:18 21:42:43 37° 262° (W) 21:46:09 145.860
SO-50 24 Nov 21:41:08 21:45:29 53° 128° (SE) 21:49:54 436.795
LO-87 24 Nov 21:41:09 21:44:16 28° 65° (ENE) 21:47:24 145.935 - 145.965
O/OREOS (USA 219) 24 Nov 21:43:41 21:48:14 60° 56° (NE) 21:52:42 437.305
ISS 24 Nov 21:44:37 21:47:44 41° 163° (SSE) 21:50:51 437.550
SPROUT 24 Nov 21:46:13 21:47:25 11° 50° (NE) 21:48:38 437.525
FO-29 24 Nov 21:48:03 21:55:54 70° 292° (WNW) 22:03:21 435.910
PRISM 24 Nov 21:48:41 21:51:13 16° 88° (E) 21:53:44 437.425
UNISAT 6 24 Nov 21:58:06 22:02:16 47° 99° (E) 22:06:22 437.425
TIGRISAT 24 Nov 22:01:23 22:05:32 46° 99° (E) 22:09:37 435.000
nSIGHT-1 24 Nov 22:24:21 22:27:31 55° 173° (S) 22:30:40 .
RS-15 24 Nov 22:27:23 22:39:21 52° 350° (N) 22:50:54 29.354- 29.394
STRAND 1 24 Nov 22:42:16 22:43:23 11° 318° (NW) 22:44:29 437.568
ESTCUBE 1 24 Nov 22:46:52 22:51:22 85° 252° (WSW) 22:55:55 437.505/2401.250
VELOX 1 24 Nov 22:51:14 22:54:57 26° 60° (ENE) 22:58:40 145.980
PCSat 24 Nov 23:13:39 23:18:02 26° 111° (ESE) 23:22:25 145.827
LO-87 24 Nov 23:14:25 23:17:38 30° 264° (W) 23:20:53 145.935 - 145.965
QB50P2 24 Nov 23:15:22 23:18:14 18° 89° (E) 23:21:05 145.880/145.840
SPROUT 24 Nov 23:18:15 23:22:28 58° 70° (ENE) 23:26:41 437.525
ISS 24 Nov 23:20:45 23:23:59 58° 183° (S) 23:27:13 437.550
SO-50 24 Nov 23:21:51 23:26:06 40° 329° (NNW) 23:30:26 436.795
PRISM 24 Nov 23:22:49 23:27:00 75° 288° (WNW) 23:31:09 437.425
O/OREOS (USA 219) 24 Nov 23:23:41 23:27:17 23° 256° (WSW) 23:30:50 437.305
DX 1 24 Nov 23:25:29 23:28:23 17° 54° (NE) 23:31:16 434.975-435.025
AIST 2D 24 Nov 23:26:25 23:29:53 48° 100° (E) 23:33:19 435.315
FO-29 24 Nov 23:33:46 23:39:42 24° 315° (NW) 23:45:29 435.910
UNISAT 6 24 Nov 23:35:13 23:38:47 26° 299° (WNW) 23:42:19 437.425
TIGRISAT 24 Nov 23:38:28 23:42:02 26° 299° (WNW) 23:45:34 435.000
50 SAT 24 Nov 23:54:08 23:56:39 21° 63° (ENE) 23:59:10 437.505
DUCHIFAT 1 24 Nov 23:58:05 00:01:49 30° 95° (E) 00:05:30 145.980
UKube-1 24 Nov 23:58:45 00:02:03 22° 58° (ENE) 00:05:22 .
nSIGHT-1 25 Nov 00:00:26 00:03:33 46° 193° (SSW) 00:06:38 .
EO-79 25 Nov 00:10:09 00:14:15 48° 100° (E) 00:18:19 145.935-145.965
NANOSAT C BR1 25 Nov 00:10:46 00:14:48 44° 99° (E) 00:18:48 145.865
POLYITAN 1 25 Nov 00:26:33 00:30:45 69° 103° (ESE) 00:34:56 437.675
ESTCUBE 1 25 Nov 00:26:43 00:28:54 13° 275° (W) 00:31:06 437.505/2401.250
VELOX 1 25 Nov 00:26:49 00:31:10 51° 260° (W) 00:35:33 145.980
BUGSAT 1 25 Nov 00:35:34 00:38:37 20° 91° (E) 00:41:38 437.445
MOZHAYETS 4 25 Nov 00:36:02 00:38:10 13° 50° (NE) 00:40:17
Oscar 19 25 Nov 00:38:19 00:41:33 16° 86° (E) 00:44:44 437.125/150
RS-15 25 Nov 00:42:21 00:54:24 59° 23° (NNE) 01:05:49 29.354- 29.394
BEESAT 25 Nov 00:47:46 00:50:26 15° 50° (NE) 00:53:06 436.000
QB50P2 25 Nov 00:50:16 00:54:28 66° 289° (WNW) 00:58:38 145.880/145.840
SPROUT 25 Nov 00:55:28 00:58:42 21° 269° (W) 01:01:57 437.525
PCSat 25 Nov 00:55:31 01:00:57 76° 313° (NW) 01:06:26 145.827
ISS 25 Nov 00:57:12 01:00:10 31° 203° (SSW) 01:03:07 437.550
ITUPSAT 1 25 Nov 00:59:33 01:02:42 18° 53° (NE) 01:05:51 437.325
PRISM 25 Nov 00:59:33 01:01:34 13° 308° (NW) 01:03:35 437.425
DX 1 25 Nov 00:59:36 01:04:00 85° 256° (WSW) 01:08:26 434.975-435.025
AIST 2D 25 Nov 01:00:14 01:02:46 19° 299° (WNW) 01:05:18 435.315
SO-50 25 Nov 01:04:04 01:07:39 22° 353° (N) 01:11:16 436.795
FO-29 25 Nov 01:21:19 01:22:05 10° 339° (NNW) 01:22:50 435.910
50 SAT 25 Nov 01:25:34 01:28:34 34° 262° (W) 01:31:35 437.505
UKube-1 25 Nov 01:33:25 01:37:42 63° 257° (WSW) 01:42:02 .
DUCHIFAT 1 25 Nov 01:33:41 01:37:32 37° 295° (WNW) 01:41:22 145.980
Gurwin Techsat 1B 25 Nov 01:33:59 01:38:48 33° 95° (E) 01:43:34 435.225
nSIGHT-1 25 Nov 01:37:01 01:39:16 18° 213° (SSW) 01:41:30 .
BEESAT 3 25 Nov 01:42:03 01:45:05 21° 118° (ESE) 01:48:07 437.485
EO-79 25 Nov 01:46:21 01:49:48 25° 299° (WNW) 01:53:13 145.935-145.965
NANOSAT C BR1 25 Nov 01:46:49 01:50:20 27° 298° (WNW) 01:53:51 145.865
AO-91 25 Nov 01:56:50 02:01:29 64° 101° (E) 02:05:36 145.960
POLYITAN 1 25 Nov 02:03:09 02:06:06 19° 303° (WNW) 02:09:04 437.675
MOZHAYETS 4 25 Nov 02:10:00 02:14:30 65° 71° (ENE) 02:19:02
BUGSAT 1 25 Nov 02:10:20 02:14:17 52° 291° (WNW) 02:18:11 437.445
AO-7 25 Nov 02:12:39 02:17:59 18° 83° (E) 02:23:17 .
Oscar 19 25 Nov 02:16:26 02:21:38 87° 106° (ESE) 02:26:50 437.125/150
BEESAT 25 Nov 02:22:41 02:27:26 70° 70° (ENE) 02:32:12 436.000
QB50P2 25 Nov 02:27:51 02:29:28 12° 309° (NW) 02:31:07 145.880/145.840
CUBESAT XI-V 25 Nov 02:32:36 02:36:41 32° 63° (ENE) 02:40:49 437.345
ITUPSAT 1 25 Nov 02:35:06 02:39:53 86° 76° (ENE) 02:44:43 437.325
DX 1 25 Nov 02:38:49 02:40:53 13° 274° (W) 02:42:58 434.975-435.025
ITAMSAT 1 25 Nov 02:39:57 02:42:28 13° 84° (E) 02:44:59 435.822/435.867
PCSat 25 Nov 02:40:31 02:45:11 28° 336° (NNW) 02:49:52 145.827
SO-50 25 Nov 02:45:33 02:49:26 26° 18° (NNE) 02:53:22 436.795
M-CUBED/EXP-1 PRIME 25 Nov 02:53:22 02:57:26 31° 101° (E) 03:01:33 437.505
RS-15 25 Nov 02:55:42 03:07:41 76° 233° (SW) 03:19:00 29.354- 29.394
AO-85 25 Nov 02:59:27 03:01:45 15° 113° (ESE) 03:04:08 145.980
BEESAT 2 25 Nov 03:02:21 03:06:03 36° 123° (ESE) 03:09:48 435.950
Gurwin Techsat 1B 25 Nov 03:13:49 03:18:58 50° 294° (WNW) 03:24:04 435.225
BEESAT 3 25 Nov 03:18:14 03:22:14 71° 316° (NW) 03:26:16 437.485
YUBILEINY 25 Nov 03:24:52 03:30:08 18° 69° (ENE) 03:35:25 435.215
KKS-1 25 Nov 03:33:10 03:37:10 33° 62° (ENE) 03:41:12 437.445
AO-91 25 Nov 03:33:54 03:37:28 22° 304° (NW) 03:40:46 145.960
STARS 25 Nov 03:46:31 03:49:54 22° 57° (ENE) 03:53:17 437.465
MOZHAYETS 4 25 Nov 03:48:45 03:52:07 20° 270° (W) 03:55:29
Oscar 19 25 Nov 03:56:36 04:00:23 21° 307° (NW) 04:04:10 437.125/150
BEESAT 25 Nov 04:02:12 04:05:42 20° 270° (W) 04:09:13 436.000
AO-7 25 Nov 04:04:06 04:12:27 67° 106° (ESE) 04:20:46 .
CUBESAT XI-V 25 Nov 04:09:36 04:13:59 42° 263° (W) 04:18:24 437.345
ITUPSAT 1 25 Nov 04:15:23 04:18:23 16° 272° (W) 04:21:23 437.325
ITAMSAT 1 25 Nov 04:17:39 04:22:54 72° 105° (ESE) 04:28:05 435.822/435.867
SO-50 25 Nov 04:26:01 04:30:37 67° 40° (NE) 04:35:18 436.795
PCSat 25 Nov 04:26:16 04:30:17 20° 2° (N) 04:34:18 145.827
M-CUBED/EXP-1 PRIME 25 Nov 04:27:34 04:31:56 47° 299° (WNW) 04:36:22 437.505
AO-85 25 Nov 04:37:31 04:41:29 89° 123° (ESE) 04:45:43 145.980
BEESAT 2 25 Nov 04:39:49 04:43:44 45° 324° (NW) 04:47:41 435.950
FO-29 25 Nov 04:42:05 04:45:26 14° 30° (NNE) 04:48:51 435.910
DOVE 4 25 Nov 04:54:12 04:59:07 40° 95° (E) 05:03:46 437.250
Gurwin Techsat 1B 25 Nov 04:55:31 04:57:47 13° 316° (NW) 05:00:02 435.225
BEESAT 3 25 Nov 04:57:09 05:00:24 23° 340° (NNW) 05:03:39 437.485
STRAND 1 25 Nov 05:06:21 05:10:10 21° 54° (NE) 05:13:58 437.568
RS-15 25 Nov 05:09:07 05:18:09 27° 259° (W) 05:26:51 29.354- 29.394
XW-2B 25 Nov 05:09:11 05:09:55 10° 85° (E) 05:10:40 145.730 - 145.750
KKS-1 25 Nov 05:09:26 05:13:39 40° 262° (W) 05:17:55 437.445
YUBILEINY 25 Nov 05:16:32 05:25:10 65° 93° (E) 05:33:52 435.215
STARS 25 Nov 05:21:27 05:25:52 65° 258° (WSW) 05:30:18 437.465
XW-2C 25 Nov 05:33:24 05:36:09 19° 91° (E) 05:38:53 145.795 - 145.815
HO-68 25 Nov 05:35:49 05:38:58 13° 79° (E) 05:42:07 435.675
XW-2F 25 Nov 05:40:04 05:42:56 20° 91° (E) 05:45:48 145.980 - 146.000
LilacSat-2 25 Nov 05:40:23 05:43:30 23° 93° (E) 05:46:36 437.200
AO-7 25 Nov 05:57:15 06:04:57 43° 309° (NW) 06:12:38 .
ITAMSAT 1 25 Nov 05:57:45 06:01:56 25° 305° (NW) 06:06:04 435.822/435.867
KAITUO 1B 25 Nov 06:00:27 06:03:38 25° 94° (E) 06:06:48 145.475/437.950
M-CUBED/EXP-1 PRIME 25 Nov 06:03:44 06:05:23 12° 319° (NW) 06:07:03 437.505
SO-50 25 Nov 06:06:54 06:10:48 27° 241° (WSW) 06:14:45 436.795
PCSat 25 Nov 06:10:31 06:15:20 31° 27° (NNE) 06:20:08 145.827
AO-85 25 Nov 06:18:53 06:22:25 27° 338° (NNW) 06:26:09 145.980
CUTE-I 25 Nov 06:19:11 06:24:18 42° 98° (E) 06:29:22 437.470
BEESAT 2 25 Nov 06:19:18 06:22:20 20° 347° (NNW) 06:25:23 435.950
FO-29 25 Nov 06:21:55 06:28:18 35° 54° (NE) 06:35:07 435.910
XW-2D 25 Nov 06:25:55 06:29:43 61° 102° (ESE) 06:33:30 145.860 - 145.880
DOVE 4 25 Nov 06:31:57 06:36:47 39° 296° (WNW) 06:41:25 437.250
BEESAT 3 25 Nov 06:36:28 06:39:11 17° 3° (N) 06:41:53 437.485
NUDT-PHONESAT 25 Nov 06:37:23 06:41:04 56° 101° (E) 06:44:44 437.300
XW-2B 25 Nov 06:40:54 06:44:44 84° 104° (ESE) 06:48:34 145.730 - 145.750
STRAND 1 25 Nov 06:43:37 06:48:47 85° 254° (WSW) 06:53:59 437.568
XW-2C 25 Nov 07:06:54 07:10:37 52° 289° (WNW) 07:14:21 145.795 - 145.815
CUTE 1.7 + AOD 2 25 Nov 07:08:48 07:12:56 45° 98° (E) 07:17:04 437.475
CUBEBUG 2 25 Nov 07:12:54 07:16:37 31° 95° (E) 07:20:19 437.445
XW-2F 25 Nov 07:13:37 07:17:18 48° 290° (WNW) 07:20:58 145.980 - 146.000
LilacSat-2 25 Nov 07:14:18 07:17:56 42° 292° (WNW) 07:21:36 437.200
YUBILEINY 25 Nov 07:14:22 07:22:32 41° 298° (WNW) 07:30:48 435.215
HO-68 25 Nov 07:21:18 07:28:24 56° 102° (ESE) 07:35:26 435.675
AAUSAT CUBESAT 2 25 Nov 07:25:09 07:28:27 22° 91° (E) 07:31:44 437.432
UNISAT 6 25 Nov 07:28:20 07:31:07 16° 55° (NE) 07:33:52 437.425
SEEDS 25 Nov 07:30:56 07:35:04 48° 99° (E) 07:39:12 437.485
TIGRISAT 25 Nov 07:31:31 07:34:16 16° 55° (NE) 07:36:59 435.000
KAITUO 1B 25 Nov 07:34:12 07:37:42 37° 293° (WNW) 07:41:12 145.475/437.950
ZACube-1 25 Nov 07:41:40 07:44:52 21° 91° (E) 07:48:03 437.345
AO-7 25 Nov 07:50:32 07:55:44 19° 334° (NNW) 08:00:57 .
PCSat 25 Nov 07:53:57 07:59:25 89° 50° (NE) 08:04:51 145.827
BEESAT 2 25 Nov 07:58:24 08:01:22 19° 11° (N) 08:04:19 435.950
CUTE-I 25 Nov 07:59:22 08:04:21 40° 298° (WNW) 08:09:19 437.470
UWE-3 25 Nov 08:00:34 08:04:38 52° 100° (E) 08:08:41 435.000/436.395/437.385
XW-2D 25 Nov 08:00:54 08:03:31 18° 301° (WNW) 08:06:08 145.860 - 145.880
AO-85 25 Nov 08:00:55 08:04:05 20° 3° (N) 08:07:26 145.980
FO-29 25 Nov 08:05:39 08:12:44 76° 257° (WSW) 08:20:32 435.910
NUDT-PHONESAT 25 Nov 08:11:58 08:14:34 18° 300° (WNW) 08:17:12 437.300
BEESAT 3 25 Nov 08:14:21 08:17:51 28° 27° (NNE) 08:21:20 437.485
XW-2B 25 Nov 08:16:20 08:18:23 14° 303° (WNW) 08:20:26 145.730 - 145.750
STRAND 1 25 Nov 08:25:40 08:28:46 16° 274° (W) 08:31:52 437.568
XW-2A 25 Nov 08:26:35 08:29:59 86° 281° (WNW) 08:33:22 145.665 - 145.685
AO-73 25 Nov 08:29:30 08:33:33 50° 100° (E) 08:37:37 145.935
Oscar 11 25 Nov 08:40:59 08:45:11 46° 99° (E) 08:49:23 .
PRISM 25 Nov 08:43:26 08:46:56 27° 61° (ENE) 08:50:28 437.425
CUTE 1.7 + AOD 2 25 Nov 08:44:59 08:48:36 27° 298° (WNW) 08:52:11 437.475
CUBEBUG 2 25 Nov 08:49:29 08:53:19 35° 295° (WNW) 08:57:06 437.445
DELFI C3 25 Nov 08:51:14 08:53:40 15° 88° (E) 08:56:05 145.870
AAUSAT CUBESAT 2 25 Nov 09:00:06 09:04:11 52° 290° (WNW) 09:08:15 437.432
UNISAT 6 25 Nov 09:02:45 09:07:16 90° 77° (ENE) 09:11:42 437.425
Max Valier Satellite 25 Nov 09:03:21 09:05:13 13° 88° (E) 09:07:05 145.860
TIGRISAT 25 Nov 09:05:53 09:10:23 89° 70° (ENE) 09:14:49 435.000
SEEDS 25 Nov 09:07:02 09:10:33 25° 298° (WNW) 09:14:03 437.485
HO-68 25 Nov 09:09:20 09:16:01 43° 303° (WNW) 09:22:40 435.675
ZACube-1 25 Nov 09:17:24 09:21:28 53° 290° (WNW) 09:25:32 437.345
YUBILEINY 25 Nov 09:18:09 09:22:34 14° 327° (NNW) 09:27:02 435.215
EO-79 25 Nov 09:35:05 09:37:26 15° 54° (NE) 09:39:47 145.935-145.965
NANOSAT C BR1 25 Nov 09:35:40 09:37:46 14° 53° (NE) 09:39:51 145.865
BEESAT 2 25 Nov 09:36:12 09:40:03 40° 34° (NNE) 09:43:52 435.950
UWE-3 25 Nov 09:37:34 09:40:51 23° 300° (WNW) 09:44:06 435.000/436.395/437.385
PCSat 25 Nov 09:38:11 09:42:10 21° 251° (WSW) 09:46:08 145.827
AO-85 25 Nov 09:41:43 09:45:42 31° 26° (NNE) 09:49:57 145.980
CUTE-I 25 Nov 09:41:56 09:43:06 11° 319° (NW) 09:44:14 437.470
AO-7 25 Nov 09:42:03 09:45:23 13° 1° (N) 09:48:43 .
POLYITAN 1 25 Nov 09:50:51 09:53:50 19° 58° (ENE) 09:56:50 437.675
BEESAT 3 25 Nov 09:51:47 09:55:46 74° 228° (SW) 09:59:40 437.485
FO-29 25 Nov 09:54:04 09:59:09 20° 280° (W) 10:04:33 435.910
XW-2A 25 Nov 10:01:18 10:02:07 11° 304° (NW) 10:02:55 145.665 - 145.685
